ATLAS CENTAUR R/B

Last updated on Thu Oct 30 2025 00:02:14 GMT+0000 (Coordinated Universal Time)

1 06155U 72065B 25302.52793190 .00001918 00000+0 26702-3 0 9993 2 06155 35.0030 354.1471 0033991 345.8612 14.1136 14.77231869821857
UTC large
Height (km)
Speed (km/s)
/
Latitude / Longitude
Inclination (degrees)
Orbital Period (minutes)
Azimuth
Elevation
Range (km)
Doppler Factor

Next 0 passes for location: London (51.5072 / 0.1276)

Sorry there are no passes over London.